Randolph AFB, TX

11:48 AM CDT on June 26, 2017 (GMT -0500)
Randolph Air Force Base

Weather History for KRND - December, 2014

Change the Weather History Date:

Monday, December 1, 2014

  Actual Average Record
Temperature  
Mean Temperature 54 °F -  
Max Temperature 66 °F 64 °F 80 °F (2012)
Min Temperature 41 °F 47 °F 27 °F (2010)
Degree Days  
Heating Degree Days 12    
Growing Degree Days 4 (Base 50)    
Moisture  
Dew Point 53 °F    
Average Humidity 82    
Maximum Humidity 100    
Minimum Humidity 50    
Precipitation  
Precipitation 0.00 in - - ()
Sea Level Pressure  
Sea Level Pressure 30.22 in    
Wind  
Wind Speed 4 mph (NNE)    
Max Wind Speed 22 mph    
Max Gust Speed 29 mph    
Visibility 4 miles    
Events Fog , Rain    
Averages and records for this station are not official NWS values.
T = Trace of Precipitation, MM = Missing Value Source: NWS Daily Summary

Daily Weather History Graph

Daily Weather History Graph

Search for Another Location

Airport or City:

Trip Planner

Search our weather history database for the weather conditions in past years. The results will help you decide how hot, cold, wet, or windy it might be!

Date:

Astronomy

Dec. 01, 2014 Rise Set
Actual Time 7:10 AM CST 5:33 PM CST
Civil Twilight 6:44 AM CST 5:59 PM CST
Nautical Twilight 6:15 AM CST 6:29 PM CST
Astronomical Twilight 5:46 AM CST 6:58 PM CST
Moon 2:20 PM CST (12/1) 2:11 AM CST (12/1)
Length of Visible Light 11h 15m
Length of Day
10h 23m
Waxing Gibbous, 75% of the Moon is Illuminated
Dec 1
Waxing Gibbous
Dec 6
Full
Dec 14
Last Quarter
Dec 21
New
Dec 28
First Quarter

Hourly Weather History & Observations

Time (CST) Temp. Windchill Dew Point Humidity Pressure Visibility Wind Dir Wind Speed Gust Speed Precip Events Conditions
12:58 AM 61.5 °F - 59.7 °F 94% 30.12 in 10.0 mi South 2.3 mph - N/A   Partly Cloudy
1:18 AM 60.8 °F - 59.0 °F 94% 30.13 in 9.0 mi Calm Calm - N/A   Scattered Clouds
1:28 AM 60.8 °F - 59.0 °F 94% 30.13 in 4.0 mi Calm Calm - N/A   Partly Cloudy
1:33 AM 60.8 °F - 59.0 °F 94% 30.13 in 0.8 mi Calm Calm - N/A   Partly Cloudy
1:38 AM 60.8 °F - 59.0 °F 94% 30.13 in 0.5 mi SE 1.2 mph - N/A Fog Fog
1:58 AM 59.5 °F - 58.1 °F 95% 30.12 in 0.5 mi Calm Calm - N/A Fog Fog
2:03 AM 59.0 °F - 57.2 °F 94% 30.13 in 0.5 mi Calm Calm - N/A Fog Fog
2:04 AM 59.0 °F - 57.2 °F 94% 30.13 in 0.5 mi Calm Calm - N/A Fog Fog
2:14 AM 59.0 °F - 57.2 °F 94% 30.13 in 0.2 mi Calm Calm - N/A Fog Fog
2:24 AM 59.0 °F - 57.2 °F 94% 30.13 in 0.5 mi Calm Calm - N/A Fog Fog
2:29 AM 59.0 °F - 57.2 °F 94% 30.13 in 0.8 mi Calm Calm - N/A   Mist
2:34 AM 59.0 °F - 57.2 °F 94% 30.13 in 0.5 mi Calm Calm - N/A Fog Fog
2:39 AM 59.0 °F - 57.2 °F 94% 30.13 in 0.8 mi Calm Calm - N/A   Overcast
2:58 AM 59.0 °F - 59.0 °F 100% 30.12 in 0.8 mi NNW 1.2 mph - N/A   Overcast
3:03 AM 60.8 °F - 59.0 °F 94% 30.13 in 1.2 mi NNW 2.3 mph - N/A   Overcast
3:08 AM 60.8 °F - 59.0 °F 94% 30.13 in 1.8 mi NNW 2.3 mph - N/A   Overcast
3:13 AM 60.8 °F - 59.0 °F 94% 30.13 in 2.5 mi NNW 1.2 mph - N/A   Overcast
3:18 AM 60.8 °F - 59.0 °F 94% 30.14 in 4.0 mi NNW 1.2 mph - N/A   Overcast
3:28 AM 60.8 °F - 60.8 °F 100% 30.14 in 5.0 mi NNW 1.2 mph - N/A   Overcast
3:33 AM 62.6 °F - 60.8 °F 94% 30.14 in 6.0 mi Calm Calm - N/A   Overcast
3:48 AM 62.6 °F - 62.6 °F 100% 30.14 in 5.0 mi SSE 2.3 mph - N/A   Overcast
3:53 AM 62.6 °F - 62.6 °F 100% 30.14 in 4.0 mi SSE 2.3 mph - N/A   Overcast
3:58 AM 63.5 °F - 62.1 °F 95% 30.13 in 3.0 mi South 1.2 mph - N/A   Overcast
4:03 AM 64.4 °F - 62.6 °F 94% 30.15 in 2.5 mi South 2.3 mph - N/A   Overcast
4:08 AM 64.4 °F - 62.6 °F 94% 30.15 in 1.8 mi Calm Calm - N/A   Overcast
4:13 AM 64.4 °F - 62.6 °F 94% 30.15 in 1.2 mi South 1.2 mph - N/A   Overcast
4:18 AM 64.4 °F - 62.6 °F 94% 30.15 in 1.0 mi Calm Calm - N/A   Mist
4:28 AM 64.4 °F - 62.6 °F 94% 30.15 in 0.8 mi Calm Calm - N/A   Mist
4:38 AM 64.4 °F - 62.6 °F 94% 30.15 in 0.8 mi South 3.5 mph - N/A   Mist
4:48 AM 64.4 °F - 62.6 °F 94% 30.16 in 0.8 mi South 3.5 mph - N/A   Mist
4:53 AM 64.4 °F - 62.6 °F 94% 30.16 in 0.8 mi South 2.3 mph - N/A   Mist
4:58 AM 63.9 °F - 62.1 °F 94% 30.15 in 0.8 mi SSE 2.3 mph - N/A   Mist
5:03 AM 64.4 °F - 62.6 °F 94% 30.16 in 0.5 mi SSE 3.5 mph - N/A Fog Fog
5:33 AM 64.4 °F - 59.0 °F 83% 30.17 in 0.8 mi South 2.3 mph - N/A   Haze
5:38 AM 64.4 °F - 59.0 °F 83% 30.17 in 0.5 mi South 1.2 mph - N/A   Haze
5:58 AM 63.9 °F - 58.6 °F 83% 30.17 in 0.5 mi Calm Calm - N/A   Haze
6:03 AM 64.4 °F - 59.0 °F 83% 30.18 in 0.8 mi Calm Calm - N/A   Haze
6:13 AM 64.4 °F - 59.0 °F 83% 30.18 in 0.5 mi Calm Calm - N/A   Haze
6:38 AM 64.4 °F - 57.2 °F 77% 30.21 in 0.5 mi North 3.5 mph - N/A   Haze
6:43 AM 64.4 °F - 57.2 °F 77% 30.21 in 0.5 mi North 4.6 mph - N/A   Haze
6:58 AM 64.0 °F - 58.3 °F 82% 30.21 in 0.4 mi NNE 3.5 mph - N/A Fog Fog
7:30 AM 64.4 °F - 57.2 °F 77% 30.24 in 0.5 mi North 8.1 mph - N/A   Mist
7:41 AM - - - N/A% 30.25 in - North 5.8 mph - N/A   Overcast
7:48 AM 64.4 °F - 57.2 °F 77% 30.25 in 1.5 mi North 5.8 mph - N/A   Overcast
7:58 AM 64.0 °F - 57.6 °F 79% 30.24 in 3.0 mi North 5.8 mph - N/A   Overcast
8:13 AM 64.4 °F - 57.2 °F 77% 30.25 in 5.0 mi North 3.5 mph - N/A   Mostly Cloudy
8:38 AM 64.4 °F - 57.2 °F 77% 30.26 in 5.0 mi East 4.6 mph - N/A   Scattered Clouds
8:48 AM 64.4 °F - 59.0 °F 83% 30.27 in 7.0 mi ENE 2.3 mph - N/A   Mostly Cloudy
8:58 AM 64.4 °F - 59.0 °F 83% 30.26 in 7.0 mi East 3.5 mph - N/A   Mostly Cloudy
9:51 AM 66.2 °F - 62.6 °F 88% 30.30 in 10.0 mi North 9.2 mph - N/A   Mostly Cloudy
9:58 AM 64.2 °F - 59.4 °F 84% 30.30 in 10.0 mi North 20.7 mph 25.3 mph N/A   Mostly Cloudy
10:23 AM 55.4 °F - 50.0 °F 82% 30.33 in 10.0 mi North 18.4 mph - N/A   Light Drizzle
10:39 AM 53.6 °F - 44.6 °F 72% 30.32 in 9.0 mi North 16.1 mph - N/A   Overcast
10:51 AM 53.6 °F - 42.8 °F 67% 30.33 in 9.0 mi North 17.3 mph - N/A   Light Drizzle
10:58 AM 52.7 °F - 43.5 °F 71% 30.33 in 8.0 mi North 19.6 mph - 0.00 in Rain Light Rain
11:10 AM 51.8 °F - 42.8 °F 71% 30.33 in 8.0 mi North 18.4 mph 26.5 mph N/A   Overcast
11:58 AM 51.3 °F - 40.5 °F 67% 30.34 in 7.0 mi NNE 17.3 mph 20.7 mph 0.00 in   Overcast
12:41 PM 51.8 °F - 39.2 °F 62% 30.33 in 10.0 mi North 15.0 mph 23.0 mph N/A   Overcast
12:58 PM 50.5 °F - 37.6 °F 61% 30.33 in 10.0 mi North 16.1 mph 21.9 mph N/A   Overcast
1:58 PM 50.0 °F - 35.2 °F 57% 30.32 in 10.0 mi North 16.1 mph 23.0 mph N/A   Overcast
2:58 PM 48.6 °F - 32.9 °F 55% 30.32 in 10.0 mi North 21.9 mph 27.6 mph N/A   Overcast
3:58 PM 46.2 °F 39.0 °F 30.9 °F 55% 30.33 in 10.0 mi North 18.4 mph 25.3 mph N/A   Overcast
4:58 PM 44.8 °F 36.6 °F 29.3 °F 55% 30.36 in 10.0 mi North 20.7 mph 28.8 mph N/A   Overcast
5:58 PM 43.2 °F 35.3 °F 29.1 °F 58% 30.37 in 10.0 mi North 17.3 mph 24.2 mph N/A   Overcast
6:58 PM 42.8 °F 35.4 °F 28.2 °F 56% 30.38 in 10.0 mi North 15.0 mph - N/A   Overcast
7:58 PM 42.6 °F 35.6 °F 28.0 °F 56% 30.39 in 10.0 mi North 13.8 mph 24.2 mph N/A   Overcast
8:58 PM 42.3 °F 35.1 °F 26.6 °F 54% 30.40 in 10.0 mi North 13.8 mph 20.7 mph N/A   Overcast
9:58 PM 42.1 °F 34.9 °F 25.0 °F 51% 30.40 in 10.0 mi North 13.8 mph - N/A   Overcast
10:58 PM 41.9 °F 34.3 °F 24.3 °F 50% 30.40 in 10.0 mi North 15.0 mph - N/A   Overcast
11:58 PM 42.1 °F 35.2 °F 24.8 °F 50% 30.40 in 10.0 mi North 12.7 mph - N/A   Overcast